Time,TemperatureF,DewpointF,PressureIn,WindDirection,WindDirectionDegrees,WindSpeedMPH,WindSpeedGustMPH,Humidity,HourlyPrecipIn,Conditions,Clouds,dailyrainin,SoftwareType,DateUTC
2013-01-18 00:01:00,24.4,19.8,30.19,NNW,328,30.0,37.0,82,0.00,,,0.00,meteohub,2013-01-18 05:01:00,
2013-01-18 00:03:00,24.4,19.4,30.19,NNW,332,30.0,37.0,81,0.00,,,0.00,meteohub,2013-01-18 05:03:00,
2013-01-18 00:04:00,24.4,19.4,30.19,NNW,327,37.0,37.0,81,0.00,,,0.00,meteohub,2013-01-18 05:04:00,
2013-01-18 00:09:00,24.3,19.2,30.20,NW,326,27.0,37.0,81,0.00,,,0.00,meteohub,2013-01-18 05:09:00,
2013-01-18 00:15:00,24.1,18.5,30.20,NW,312,27.0,37.0,79,0.00,,,0.00,meteohub,2013-01-18 05:15:00,
2013-01-18 00:20:00,23.5,18.0,30.20,NW,321,31.0,37.0,79,0.00,,,0.00,meteohub,2013-01-18 05:20:00,
2013-01-18 00:25:00,23.4,17.8,30.21,NW,325,23.0,40.0,79,0.00,,,0.00,meteohub,2013-01-18 05:25:00,
2013-01-18 00:30:00,23.0,16.9,30.22,NW,315,31.0,40.0,77,0.00,,,0.00,meteohub,2013-01-18 05:30:00,
2013-01-18 00:35:00,22.8,16.3,30.22,NW,321,31.0,39.0,76,0.00,,,0.00,meteohub,2013-01-18 05:35:00,
2013-01-18 00:40:00,22.5,15.8,30.22,NW,317,19.0,39.0,75,0.00,,,0.00,meteohub,2013-01-18 05:40:00,
2013-01-18 00:45:00,22.5,15.4,30.23,NW,323,23.0,39.0,74,0.00,,,0.00,meteohub,2013-01-18 05:45:00,
2013-01-18 00:50:00,22.1,14.7,30.23,NW,319,33.0,39.0,73,0.00,,,0.00,meteohub,2013-01-18 05:50:00,
2013-01-18 00:55:00,21.9,14.9,30.23,NW,323,29.0,33.0,74,0.00,,,0.00,meteohub,2013-01-18 05:55:00,
2013-01-18 01:00:00,22.5,16.0,30.23,NW,323,33.0,33.0,76,0.00,,,0.00,meteohub,2013-01-18 06:00:00,
2013-01-18 01:06:00,22.3,15.6,30.24,NW,311,26.0,34.0,75,0.00,,,0.00,meteohub,2013-01-18 06:06:00,
2013-01-18 01:11:00,22.1,14.7,30.24,NW,311,25.0,34.0,73,0.00,,,0.00,meteohub,2013-01-18 06:11:00,
2013-01-18 01:16:00,22.3,14.9,30.25,NW,311,21.0,34.0,73,0.00,,,0.00,meteohub,2013-01-18 06:16:00,
2013-01-18 01:21:00,21.9,14.5,30.25,NNW,333,21.0,37.0,73,0.00,,,0.00,meteohub,2013-01-18 06:21:00,
2013-01-18 01:26:00,21.9,14.4,30.26,NW,311,25.0,37.0,72,0.00,,,0.00,meteohub,2013-01-18 06:26:00,
2013-01-18 01:31:00,21.7,14.2,30.26,NW,316,21.0,37.0,72,0.00,,,0.00,meteohub,2013-01-18 06:31:00,
2013-01-18 01:36:00,22.1,14.7,30.27,WNW,296,30.0,31.0,73,0.00,,,0.00,meteohub,2013-01-18 06:36:00,
2013-01-18 01:41:00,21.9,14.4,30.27,WNW,302,22.0,33.0,72,0.00,,,0.00,meteohub,2013-01-18 06:41:00,
2013-01-18 01:46:00,22.3,14.9,30.27,NW,317,19.0,33.0,73,0.00,,,0.00,meteohub,2013-01-18 06:46:00,
2013-01-18 01:51:00,22.1,14.7,30.27,WNW,303,21.0,33.0,73,0.00,,,0.00,meteohub,2013-01-18 06:51:00,
2013-01-18 01:56:00,22.3,14.9,30.28,WNW,302,29.0,30.0,73,0.00,,,0.00,meteohub,2013-01-18 06:56:00,
2013-01-18 02:01:00,21.7,13.8,30.28,NW,311,22.0,31.0,71,0.00,,,0.00,meteohub,2013-01-18 07:01:00,
2013-01-18 02:06:00,21.9,14.4,30.28,NW,306,21.0,31.0,72,0.00,,,0.00,meteohub,2013-01-18 07:06:00,
2013-01-18 02:11:00,21.7,13.8,30.29,NW,308,19.0,31.0,71,0.00,,,0.00,meteohub,2013-01-18 07:11:00,
2013-01-18 02:16:00,21.7,13.8,30.29,NW,309,24.0,29.0,71,0.00,,,0.00,meteohub,2013-01-18 07:16:00,
2013-01-18 02:21:00,21.9,14.4,30.30,WNW,300,24.0,31.0,72,0.00,,,0.00,meteohub,2013-01-18 07:21:00,
2013-01-18 02:26:00,21.7,14.2,30.30,NW,316,20.0,31.0,72,0.00,,,0.00,meteohub,2013-01-18 07:26:00,
2013-01-18 02:31:00,21.7,13.8,30.30,NW,308,23.0,31.0,71,0.00,,,0.00,meteohub,2013-01-18 07:31:00,
2013-01-18 02:37:00,22.1,14.7,30.30,NW,306,18.0,29.0,73,0.00,,,0.00,meteohub,2013-01-18 07:37:00,
2013-01-18 02:42:00,22.1,14.7,30.30,WNW,303,15.0,29.0,73,0.00,,,0.00,meteohub,2013-01-18 07:42:00,
2013-01-18 02:47:00,21.9,14.5,30.31,NW,314,23.0,26.0,73,0.00,,,0.00,meteohub,2013-01-18 07:47:00,
2013-01-18 02:52:00,21.7,13.8,30.31,WNW,296,20.0,29.0,71,0.00,,,0.00,meteohub,2013-01-18 07:52:00,
2013-01-18 02:57:00,21.7,13.8,30.32,WNW,300,19.0,29.0,71,0.00,,,0.00,meteohub,2013-01-18 07:57:00,
2013-01-18 03:02:00,21.7,14.2,30.32,WNW,298,22.0,26.0,72,0.00,,,0.00,meteohub,2013-01-18 08:02:00,
2013-01-18 03:07:00,21.7,13.8,30.32,WNW,294,19.0,29.0,71,0.00,,,0.00,meteohub,2013-01-18 08:07:00,
2013-01-18 03:12:00,21.7,13.8,30.32,NW,324,20.0,31.0,71,0.00,,,0.00,meteohub,2013-01-18 08:12:00,
2013-01-18 03:17:00,21.7,13.8,30.33,WNW,292,17.0,31.0,71,0.00,,,0.00,meteohub,2013-01-18 08:17:00,
2013-01-18 03:22:00,21.6,13.3,30.33,NW,316,18.0,27.0,70,0.00,,,0.00,meteohub,2013-01-18 08:22:00,
2013-01-18 03:27:00,21.7,13.8,30.33,NW,316,17.0,27.0,71,0.00,,,0.00,meteohub,2013-01-18 08:27:00,
2013-01-18 03:32:00,21.6,13.6,30.33,NNW,341,22.0,27.0,71,0.00,,,0.00,meteohub,2013-01-18 08:32:00,
2013-01-18 03:37:00,21.4,12.7,30.33,NW,311,23.0,28.0,69,0.00,,,0.00,meteohub,2013-01-18 08:37:00,
2013-01-18 03:42:00,21.4,12.7,30.33,NW,319,25.0,28.0,69,0.00,,,0.00,meteohub,2013-01-18 08:42:00,
2013-01-18 03:47:00,21.4,12.7,30.34,NNW,334,17.0,30.0,69,0.00,,,0.00,meteohub,2013-01-18 08:47:00,
2013-01-18 03:52:00,21.6,14.0,30.34,NW,319,19.0,30.0,72,0.00,,,0.00,meteohub,2013-01-18 08:52:00,
2013-01-18 03:57:00,21.4,13.8,30.34,NW,306,16.0,30.0,72,0.00,,,0.00,meteohub,2013-01-18 08:57:00,
2013-01-18 04:02:00,21.4,14.0,30.34,WNW,298,18.0,25.0,73,0.00,,,0.00,meteohub,2013-01-18 09:02:00,
2013-01-18 04:07:00,21.2,13.8,30.34,NW,310,20.0,28.0,73,0.00,,,0.00,meteohub,2013-01-18 09:07:00,
2013-01-18 04:12:00,21.4,13.8,30.34,NW,307,24.0,28.0,72,0.00,,,0.00,meteohub,2013-01-18 09:12:00,
2013-01-18 04:17:00,21.4,13.5,30.34,NW,311,16.0,28.0,71,0.00,,,0.00,meteohub,2013-01-18 09:17:00,
2013-01-18 04:22:00,21.4,12.7,30.35,NW,309,17.0,28.0,69,0.00,,,0.00,meteohub,2013-01-18 09:22:00,
2013-01-18 04:27:00,21.4,12.7,30.35,WNW,300,16.0,28.0,69,0.00,,,0.00,meteohub,2013-01-18 09:27:00,
2013-01-18 04:32:00,21.6,13.3,30.35,WNW,288,19.0,26.0,70,0.00,,,0.00,meteohub,2013-01-18 09:32:00,
2013-01-18 04:37:00,21.2,12.4,30.35,WNW,301,21.0,25.0,68,0.00,,,0.00,meteohub,2013-01-18 09:37:00,
2013-01-18 04:42:00,21.6,12.9,30.35,WNW,296,22.0,25.0,69,0.00,,,0.00,meteohub,2013-01-18 09:42:00,
2013-01-18 04:47:00,21.2,12.0,30.36,NW,314,16.0,25.0,67,0.00,,,0.00,meteohub,2013-01-18 09:47:00,
2013-01-18 04:52:00,21.6,13.3,30.36,WNW,298,19.0,24.0,70,0.00,,,0.00,meteohub,2013-01-18 09:52:00,
2013-01-18 04:57:00,21.2,12.6,30.36,WNW,297,22.0,24.0,69,0.00,,,0.00,meteohub,2013-01-18 09:57:00,
2013-01-18 05:02:00,21.2,12.4,30.36,NW,310,25.0,25.0,68,0.00,,,0.00,meteohub,2013-01-18 10:02:00,
2013-01-18 05:07:00,21.6,13.6,30.36,WNW,287,20.0,27.0,71,0.00,,,0.00,meteohub,2013-01-18 10:07:00,
2013-01-18 05:12:00,21.4,13.1,30.36,West,277,18.0,27.0,70,0.00,,,0.00,meteohub,2013-01-18 10:12:00,
2013-01-18 05:17:00,21.6,13.3,30.37,NW,305,19.0,27.0,70,0.00,,,0.00,meteohub,2013-01-18 10:17:00,
2013-01-18 05:22:00,21.4,12.7,30.37,WNW,291,19.0,26.0,69,0.00,,,0.00,meteohub,2013-01-18 10:22:00,
2013-01-18 05:27:00,21.2,11.7,30.38,WNW,297,16.0,26.0,66,0.00,,,0.00,meteohub,2013-01-18 10:27:00,
2013-01-18 05:32:00,21.2,11.7,30.38,NW,313,20.0,26.0,66,0.00,,,0.00,meteohub,2013-01-18 10:32:00,
2013-01-18 05:37:00,21.0,12.2,30.38,West,276,18.0,26.0,68,0.00,,,0.00,meteohub,2013-01-18 10:37:00,
2013-01-18 05:42:00,21.2,12.0,30.39,WNW,300,27.0,29.0,67,0.00,,,0.00,meteohub,2013-01-18 10:42:00,
2013-01-18 05:47:00,21.0,12.2,30.38,WNW,290,24.0,29.0,68,0.00,,,0.00,meteohub,2013-01-18 10:47:00,
2013-01-18 05:52:00,21.2,12.4,30.38,West,265,24.0,29.0,68,0.00,,,0.00,meteohub,2013-01-18 10:52:00,
2013-01-18 05:57:00,21.0,12.2,30.39,WNW,284,22.0,29.0,68,0.00,,,0.00,meteohub,2013-01-18 10:57:00,
2013-01-18 06:02:00,21.4,12.7,30.39,West,277,20.0,28.0,69,0.00,,,0.00,meteohub,2013-01-18 11:02:00,
2013-01-18 06:07:00,21.0,12.4,30.40,West,279,22.0,28.0,69,0.00,,,0.00,meteohub,2013-01-18 11:07:00,
2013-01-18 06:12:00,20.8,11.3,30.40,WNW,301,19.0,28.0,66,0.00,,,0.00,meteohub,2013-01-18 11:12:00,
2013-01-18 06:17:00,20.8,11.7,30.40,NW,306,20.0,28.0,67,0.00,,,0.00,meteohub,2013-01-18 11:17:00,
2013-01-18 06:22:00,20.8,11.7,30.41,WNW,286,21.0,29.0,67,0.00,,,0.00,meteohub,2013-01-18 11:22:00,
2013-01-18 06:27:00,20.8,12.2,30.41,WNW,295,23.0,29.0,69,0.00,,,0.00,meteohub,2013-01-18 11:27:00,
2013-01-18 06:33:00,20.8,12.2,30.42,WNW,297,21.0,29.0,69,0.00,,,0.00,meteohub,2013-01-18 11:33:00,
2013-01-18 06:38:00,20.8,12.0,30.41,West,280,21.0,29.0,68,0.00,,,0.00,meteohub,2013-01-18 11:38:00,
2013-01-18 06:43:00,20.8,12.6,30.41,WNW,298,17.0,28.0,70,0.00,,,0.00,meteohub,2013-01-18 11:43:00,
2013-01-18 06:48:00,20.7,12.0,30.41,WNW,301,23.0,26.0,69,0.00,,,0.00,meteohub,2013-01-18 11:48:00,
2013-01-18 06:53:00,20.5,12.0,30.41,NW,306,20.0,28.0,69,0.00,,,0.00,meteohub,2013-01-18 11:53:00,
2013-01-18 06:58:00,20.7,12.4,30.42,WNW,296,25.0,28.0,70,0.00,,,0.00,meteohub,2013-01-18 11:58:00,
2013-01-18 07:03:00,20.7,12.0,30.42,WNW,288,18.0,28.0,69,0.00,,,0.00,meteohub,2013-01-18 12:03:00,
2013-01-18 07:08:00,20.7,12.4,30.42,West,280,17.0,29.0,70,0.00,,,0.00,meteohub,2013-01-18 12:08:00,
2013-01-18 07:13:00,20.7,12.4,30.42,WNW,285,25.0,29.0,70,0.00,,,0.00,meteohub,2013-01-18 12:13:00,
2013-01-18 07:18:00,20.8,13.3,30.42,WNW,292,19.0,33.0,72,0.00,,,0.00,meteohub,2013-01-18 12:18:00,
2013-01-18 07:23:00,20.8,13.6,30.42,WNW,300,18.0,33.0,73,0.00,,,0.00,meteohub,2013-01-18 12:23:00,
2013-01-18 07:28:00,20.7,12.7,30.42,WNW,291,21.0,33.0,71,0.00,,,0.00,meteohub,2013-01-18 12:28:00,
2013-01-18 07:33:00,20.7,12.4,30.42,WNW,288,18.0,29.0,70,0.00,,,0.00,meteohub,2013-01-18 12:33:00,
2013-01-18 07:38:00,20.7,12.7,30.42,WNW,288,20.0,29.0,71,0.00,,,0.00,meteohub,2013-01-18 12:38:00,
2013-01-18 07:43:00,20.7,12.7,30.42,NW,306,23.0,29.0,71,0.00,,,0.00,meteohub,2013-01-18 12:43:00,
2013-01-18 07:48:00,20.3,12.4,30.42,WNW,301,13.0,25.0,71,0.00,,,0.00,meteohub,2013-01-18 12:48:00,
2013-01-18 07:54:00,20.5,12.6,30.43,West,277,18.0,25.0,71,0.00,,,0.00,meteohub,2013-01-18 12:54:00,
2013-01-18 07:59:00,20.8,13.3,30.43,WNW,299,16.0,24.0,72,0.00,,,0.00,meteohub,2013-01-18 12:59:00,
2013-01-18 08:04:00,21.0,13.5,30.43,West,277,17.0,25.0,72,0.00,,,0.00,meteohub,2013-01-18 13:04:00,
2013-01-18 08:09:00,21.4,14.0,30.43,WNW,286,20.0,25.0,73,0.00,,,0.00,meteohub,2013-01-18 13:09:00,
2013-01-18 08:14:00,20.7,12.7,30.43,WNW,289,18.0,25.0,71,0.00,,,0.00,meteohub,2013-01-18 13:14:00,
2013-01-18 08:19:00,20.7,12.7,30.43,WNW,295,18.0,24.0,71,0.00,,,0.00,meteohub,2013-01-18 13:19:00,
2013-01-18 08:24:00,20.7,12.7,30.43,WNW,299,16.0,24.0,71,0.00,,,0.00,meteohub,2013-01-18 13:24:00,
2013-01-18 08:29:00,20.8,12.9,30.43,WNW,292,13.0,26.0,71,0.00,,,0.00,meteohub,2013-01-18 13:29:00,
2013-01-18 08:34:00,21.0,13.5,30.43,WNW,297,16.0,26.0,72,0.00,,,0.00,meteohub,2013-01-18 13:34:00,
2013-01-18 08:39:00,21.0,13.1,30.43,WNW,302,19.0,26.0,71,0.00,,,0.00,meteohub,2013-01-18 13:39:00,
2013-01-18 08:44:00,20.8,13.3,30.44,WNW,293,18.0,26.0,72,0.00,,,0.00,meteohub,2013-01-18 13:44:00,
2013-01-18 08:49:00,21.0,13.8,30.44,WNW,301,23.0,25.0,73,0.00,,,0.00,meteohub,2013-01-18 13:49:00,
2013-01-18 08:54:00,21.0,13.5,30.44,WNW,286,22.0,23.0,72,0.00,,,0.00,meteohub,2013-01-18 13:54:00,
2013-01-18 08:59:00,21.0,13.8,30.45,WNW,297,19.0,26.0,73,0.00,,,0.00,meteohub,2013-01-18 13:59:00,
2013-01-18 09:04:00,21.0,13.8,30.45,West,267,16.0,26.0,73,0.00,,,0.00,meteohub,2013-01-18 14:04:00,
2013-01-18 09:09:00,21.4,14.0,30.45,West,278,17.0,26.0,73,0.00,,,0.00,meteohub,2013-01-18 14:09:00,
2013-01-18 09:14:00,21.2,13.8,30.44,WNW,298,19.0,25.0,73,0.00,,,0.00,meteohub,2013-01-18 14:14:00,
2013-01-18 09:19:00,21.0,13.1,30.44,WNW,291,18.0,25.0,71,0.00,,,0.00,meteohub,2013-01-18 14:19:00,
2013-01-18 09:24:00,21.2,13.6,30.45,WNW,296,18.0,23.0,72,0.00,,,0.00,meteohub,2013-01-18 14:24:00,
2013-01-18 09:29:00,21.4,13.8,30.45,West,273,17.0,23.0,72,0.00,,,0.00,meteohub,2013-01-18 14:29:00,
2013-01-18 09:34:00,21.4,13.5,30.45,WNW,297,16.0,23.0,71,0.00,,,0.00,meteohub,2013-01-18 14:34:00,
2013-01-18 09:40:00,21.4,13.8,30.45,West,278,16.0,22.0,72,0.00,,,0.00,meteohub,2013-01-18 14:40:00,
2013-01-18 09:45:00,21.6,14.0,30.45,West,275,14.0,22.0,72,0.00,,,0.00,meteohub,2013-01-18 14:45:00,
2013-01-18 09:50:00,21.4,13.8,30.45,West,279,14.0,22.0,72,0.00,,,0.00,meteohub,2013-01-18 14:50:00,
2013-01-18 09:55:00,21.6,14.2,30.45,West,273,14.0,21.0,73,0.00,,,0.00,meteohub,2013-01-18 14:55:00,
2013-01-18 10:00:00,21.6,14.2,30.45,West,278,14.0,19.0,73,0.00,,,0.00,meteohub,2013-01-18 15:00:00,
2013-01-18 10:05:00,21.6,14.2,30.46,WNW,289,18.0,19.0,73,0.00,,,0.00,meteohub,2013-01-18 15:05:00,
2013-01-18 10:10:00,21.4,14.0,30.46,West,281,10.0,21.0,73,0.00,,,0.00,meteohub,2013-01-18 15:10:00,
2013-01-18 10:15:00,21.6,14.5,30.46,NW,304,16.0,21.0,74,0.00,,,0.00,meteohub,2013-01-18 15:15:00,
2013-01-18 10:20:00,21.7,14.7,30.46,West,279,17.0,21.0,74,0.00,,,0.00,meteohub,2013-01-18 15:20:00,
2013-01-18 10:25:00,21.7,14.7,30.45,West,281,12.0,21.0,74,0.00,,,0.00,meteohub,2013-01-18 15:25:00,
2013-01-18 10:30:00,21.7,14.7,30.45,WNW,290,17.0,21.0,74,0.00,,,0.00,meteohub,2013-01-18 15:30:00,
2013-01-18 10:36:00,21.9,14.9,30.45,West,276,17.0,22.0,74,0.00,,,0.00,meteohub,2013-01-18 15:36:00,
2013-01-18 10:41:00,22.1,15.1,30.45,West,280,16.0,22.0,74,0.00,,,0.00,meteohub,2013-01-18 15:41:00,
2013-01-18 10:46:00,21.9,14.9,30.45,West,263,10.0,22.0,74,0.00,,,0.00,meteohub,2013-01-18 15:46:00,
2013-01-18 10:51:00,22.3,15.6,30.44,NW,304,14.0,21.0,75,0.00,,,0.00,meteohub,2013-01-18 15:51:00,
2013-01-18 10:56:00,22.3,15.6,30.45,WNW,286,16.0,21.0,75,0.00,,,0.00,meteohub,2013-01-18 15:56:00,
2013-01-18 11:01:00,22.5,16.0,30.44,West,279,11.0,19.0,76,0.00,,,0.00,meteohub,2013-01-18 16:01:00,
2013-01-18 11:06:00,22.5,16.0,30.43,West,261,17.0,20.0,76,0.00,,,0.00,meteohub,2013-01-18 16:06:00,
2013-01-18 11:11:00,22.5,16.0,30.43,West,264,16.0,23.0,76,0.00,,,0.00,meteohub,2013-01-18 16:11:00,
2013-01-18 11:16:00,22.5,16.0,30.43,WSW,246,13.0,23.0,76,0.00,,,0.00,meteohub,2013-01-18 16:16:00,
2013-01-18 11:21:00,22.6,16.2,30.43,West,261,16.0,19.0,76,0.00,,,0.00,meteohub,2013-01-18 16:21:00,
2013-01-18 11:26:00,23.2,17.1,30.43,West,264,16.0,20.0,77,0.00,,,0.00,meteohub,2013-01-18 16:26:00,
2013-01-18 11:31:00,23.0,16.5,30.42,West,273,15.0,20.0,76,0.00,,,0.00,meteohub,2013-01-18 16:31:00,
2013-01-18 11:37:00,23.0,16.9,30.41,WNW,286,15.0,20.0,77,0.00,,,0.00,meteohub,2013-01-18 16:37:00,
2013-01-18 11:42:00,23.0,16.9,30.41,WNW,288,15.0,20.0,77,0.00,,,0.00,meteohub,2013-01-18 16:42:00,
2013-01-18 11:47:00,23.2,17.1,30.40,West,261,13.0,21.0,77,0.00,,,0.00,meteohub,2013-01-18 16:47:00,
2013-01-18 11:52:00,23.4,17.2,30.40,WSW,244,13.0,21.0,77,0.00,,,0.00,meteohub,2013-01-18 16:52:00,
2013-01-18 11:57:00,23.4,17.2,30.40,WSW,254,14.0,21.0,77,0.00,,,0.00,meteohub,2013-01-18 16:57:00,
2013-01-18 12:02:00,23.7,17.6,30.40,West,270,13.0,18.0,77,0.00,,,0.00,meteohub,2013-01-18 17:02:00,
2013-01-18 12:07:00,23.7,17.6,30.40,WSW,258,17.0,18.0,77,0.00,,,0.00,meteohub,2013-01-18 17:07:00,
2013-01-18 12:12:00,24.1,18.1,30.40,West,259,15.0,18.0,78,0.00,,,0.00,meteohub,2013-01-18 17:12:00,
2013-01-18 12:17:00,24.3,18.3,30.40,West,260,15.0,19.0,78,0.00,,,0.00,meteohub,2013-01-18 17:17:00,
2013-01-18 12:22:00,24.3,18.3,30.40,WSW,244,20.0,22.0,78,0.00,,,0.00,meteohub,2013-01-18 17:22:00,
2013-01-18 12:27:00,24.4,18.5,30.40,West,267,18.0,23.0,78,0.00,,,0.00,meteohub,2013-01-18 17:27:00,
2013-01-18 12:32:00,24.4,18.5,30.39,WSW,239,13.0,25.0,78,0.00,,,0.00,meteohub,2013-01-18 17:32:00,
2013-01-18 12:37:00,24.3,18.1,30.38,SW,234,12.0,25.0,77,0.00,,,0.00,meteohub,2013-01-18 17:37:00,
2013-01-18 12:42:00,24.4,18.5,30.37,SW,224,13.0,25.0,78,0.00,,,0.00,meteohub,2013-01-18 17:42:00,
2013-01-18 12:47:00,24.6,18.5,30.37,WSW,249,7.0,20.0,77,0.00,,,0.00,meteohub,2013-01-18 17:47:00,
2013-01-18 12:52:00,24.6,18.5,30.37,WSW,252,14.0,20.0,77,0.00,,,0.00,meteohub,2013-01-18 17:52:00,
2013-01-18 12:57:00,25.0,18.9,30.38,West,262,15.0,20.0,77,0.00,,,0.00,meteohub,2013-01-18 17:57:00,
2013-01-18 13:02:00,25.3,18.9,30.38,SW,219,18.0,20.0,76,0.00,,,0.00,meteohub,2013-01-18 18:02:00,
2013-01-18 13:07:00,25.2,17.8,30.38,WSW,240,9.0,19.0,73,0.00,,,0.00,meteohub,2013-01-18 18:07:00,
2013-01-18 13:12:00,25.3,18.0,30.37,SW,231,19.0,19.0,73,0.00,,,0.00,meteohub,2013-01-18 18:12:00,
2013-01-18 13:17:00,25.3,17.6,30.37,SW,221,18.0,19.0,72,0.00,,,0.00,meteohub,2013-01-18 18:17:00,
2013-01-18 13:22:00,25.3,17.6,30.37,SW,218,16.0,21.0,72,0.00,,,0.00,meteohub,2013-01-18 18:22:00,
2013-01-18 13:27:00,25.5,17.8,30.36,WSW,238,11.0,21.0,72,0.00,,,0.00,meteohub,2013-01-18 18:27:00,
2013-01-18 13:32:00,25.7,18.3,30.36,SSW,212,6.0,21.0,73,0.00,,,0.00,meteohub,2013-01-18 18:32:00,
2013-01-18 13:37:00,25.7,18.5,30.36,WSW,248,6.0,18.0,74,0.00,,,0.00,meteohub,2013-01-18 18:37:00,
2013-01-18 13:42:00,25.9,18.7,30.35,SW,232,11.0,16.0,74,0.00,,,0.00,meteohub,2013-01-18 18:42:00,
2013-01-18 13:47:00,25.9,18.7,30.35,WSW,245,11.0,17.0,74,0.00,,,0.00,meteohub,2013-01-18 18:47:00,
2013-01-18 13:53:00,26.1,18.9,30.35,SW,232,6.0,17.0,74,0.00,,,0.00,meteohub,2013-01-18 18:53:00,
2013-01-18 13:58:00,26.1,18.9,30.35,SW,217,16.0,17.0,74,0.00,,,0.00,meteohub,2013-01-18 18:58:00,
2013-01-18 14:03:00,26.2,18.9,30.34,WSW,240,13.0,20.0,73,0.00,,,0.00,meteohub,2013-01-18 19:03:00,
2013-01-18 14:08:00,26.4,18.9,30.34,SSW,213,11.0,21.0,73,0.00,,,0.00,meteohub,2013-01-18 19:08:00,
2013-01-18 14:13:00,26.6,18.9,30.33,WSW,238,12.0,21.0,72,0.00,,,0.00,meteohub,2013-01-18 19:13:00,
2013-01-18 14:18:00,26.8,18.7,30.33,SW,229,15.0,18.0,71,0.00,,,0.00,meteohub,2013-01-18 19:18:00,
2013-01-18 14:23:00,27.0,18.9,30.33,SSW,194,12.0,20.0,71,0.00,,,0.00,meteohub,2013-01-18 19:23:00,
2013-01-18 14:28:00,27.0,18.5,30.32,South,186,14.0,20.0,70,0.00,,,0.00,meteohub,2013-01-18 19:28:00,
2013-01-18 14:33:00,27.1,18.3,30.32,SSW,205,19.0,20.0,69,0.00,,,0.00,meteohub,2013-01-18 19:33:00,
2013-01-18 14:38:00,27.3,18.5,30.32,SSW,195,6.0,23.0,69,0.00,,,0.00,meteohub,2013-01-18 19:38:00,
2013-01-18 14:43:00,27.3,18.5,30.31,SW,221,15.0,23.0,69,0.00,,,0.00,meteohub,2013-01-18 19:43:00,
2013-01-18 14:48:00,27.3,18.5,30.31,SW,225,15.0,23.0,69,0.00,,,0.00,meteohub,2013-01-18 19:48:00,
2013-01-18 14:53:00,27.7,18.9,30.31,SW,230,12.0,20.0,69,0.00,,,0.00,meteohub,2013-01-18 19:53:00,
2013-01-18 14:58:00,28.0,19.2,30.31,South,187,7.0,19.0,69,0.00,,,0.00,meteohub,2013-01-18 19:58:00,
2013-01-18 15:04:00,28.0,18.9,30.31,SSW,213,9.0,19.0,68,0.00,,,0.00,meteohub,2013-01-18 20:04:00,
2013-01-18 15:09:00,28.4,19.2,30.30,SW,223,14.0,20.0,68,0.00,,,0.00,meteohub,2013-01-18 20:09:00,
2013-01-18 15:14:00,28.6,19.4,30.29,SW,224,14.0,20.0,68,0.00,,,0.00,meteohub,2013-01-18 20:14:00,
2013-01-18 15:19:00,28.9,19.8,30.29,SW,234,12.0,20.0,68,0.00,,,0.00,meteohub,2013-01-18 20:19:00,
2013-01-18 15:24:00,29.1,19.6,30.28,SSW,201,18.0,18.0,67,0.00,,,0.00,meteohub,2013-01-18 20:24:00,
2013-01-18 15:29:00,29.5,19.9,30.28,SW,219,12.0,20.0,67,0.00,,,0.00,meteohub,2013-01-18 20:29:00,
2013-01-18 15:34:00,29.7,19.4,30.27,SW,217,10.0,20.0,65,0.00,,,0.00,meteohub,2013-01-18 20:34:00,
2013-01-18 15:39:00,29.8,19.6,30.27,SW,220,17.0,20.0,65,0.00,,,0.00,meteohub,2013-01-18 20:39:00,
2013-01-18 15:44:00,29.8,19.6,30.27,SW,232,17.0,19.0,65,0.00,,,0.00,meteohub,2013-01-18 20:44:00,
2013-01-18 15:49:00,29.8,19.2,30.26,WSW,238,14.0,22.0,64,0.00,,,0.00,meteohub,2013-01-18 20:49:00,
2013-01-18 15:54:00,30.0,19.4,30.26,WSW,249,13.0,23.0,64,0.00,,,0.00,meteohub,2013-01-18 20:54:00,
2013-01-18 15:59:00,30.0,19.4,30.26,SW,234,10.0,23.0,64,0.00,,,0.00,meteohub,2013-01-18 20:59:00,
2013-01-18 16:04:00,30.4,19.6,30.26,WSW,237,15.0,23.0,64,0.00,,,0.00,meteohub,2013-01-18 21:04:00,
2013-01-18 16:10:00,30.4,18.9,30.25,South,178,11.0,19.0,62,0.00,,,0.00,meteohub,2013-01-18 21:10:00,
2013-01-18 16:15:00,30.6,19.0,30.25,SSW,205,17.0,25.0,62,0.00,,,0.00,meteohub,2013-01-18 21:15:00,
2013-01-18 16:20:00,30.6,19.0,30.25,SSW,197,16.0,25.0,62,0.00,,,0.00,meteohub,2013-01-18 21:20:00,
2013-01-18 16:25:00,30.6,19.0,30.25,SW,231,11.0,25.0,62,0.00,,,0.00,meteohub,2013-01-18 21:25:00,
2013-01-18 16:30:00,30.6,19.0,30.24,SW,234,15.0,21.0,62,0.00,,,0.00,meteohub,2013-01-18 21:30:00,
2013-01-18 16:35:00,30.6,19.0,30.24,SW,215,12.0,24.0,62,0.00,,,0.00,meteohub,2013-01-18 21:35:00,
2013-01-18 16:40:00,30.6,19.0,30.24,SW,234,19.0,24.0,62,0.00,,,0.00,meteohub,2013-01-18 21:40:00,
2013-01-18 16:45:00,30.7,19.2,30.24,South,188,10.0,23.0,62,0.00,,,0.00,meteohub,2013-01-18 21:45:00,
2013-01-18 16:50:00,30.7,19.2,30.24,SW,236,13.0,23.0,62,0.00,,,0.00,meteohub,2013-01-18 21:50:00,
2013-01-18 16:55:00,30.7,19.2,30.24,SSW,200,20.0,23.0,62,0.00,,,0.00,meteohub,2013-01-18 21:55:00,
2013-01-18 17:00:00,30.6,19.0,30.23,SSW,202,13.0,22.0,62,0.00,,,0.00,meteohub,2013-01-18 22:00:00,
2013-01-18 17:05:00,30.6,19.0,30.23,SSW,213,17.0,22.0,62,0.00,,,0.00,meteohub,2013-01-18 22:05:00,
2013-01-18 17:10:00,30.6,19.0,30.23,SSW,211,17.0,26.0,62,0.00,,,0.00,meteohub,2013-01-18 22:10:00,
2013-01-18 17:16:00,30.6,19.0,30.23,SSW,209,17.0,26.0,62,0.00,,,0.00,meteohub,2013-01-18 22:16:00,
2013-01-18 17:21:00,30.6,19.4,30.23,WSW,240,12.0,26.0,63,0.00,,,0.00,meteohub,2013-01-18 22:21:00,
2013-01-18 17:26:00,30.6,19.4,30.23,SW,219,6.0,17.0,63,0.00,,,0.00,meteohub,2013-01-18 22:26:00,
2013-01-18 17:31:00,30.4,19.2,30.23,SSW,207,10.0,17.0,63,0.00,,,0.00,meteohub,2013-01-18 22:31:00,
2013-01-18 17:36:00,30.4,19.2,30.23,SSW,202,16.0,16.0,63,0.00,,,0.00,meteohub,2013-01-18 22:36:00,
2013-01-18 17:41:00,30.4,19.6,30.22,SW,227,11.0,22.0,64,0.00,,,0.00,meteohub,2013-01-18 22:41:00,
2013-01-18 17:46:00,30.4,19.6,30.22,SSW,202,6.0,22.0,64,0.00,,,0.00,meteohub,2013-01-18 22:46:00,
2013-01-18 17:51:00,30.4,19.6,30.22,SSW,207,11.0,22.0,64,0.00,,,0.00,meteohub,2013-01-18 22:51:00,
2013-01-18 17:56:00,30.4,19.6,30.22,WSW,243,10.0,20.0,64,0.00,,,0.00,meteohub,2013-01-18 22:56:00,
2013-01-18 18:01:00,30.6,19.8,30.21,SSW,201,13.0,21.0,64,0.00,,,0.00,meteohub,2013-01-18 23:01:00,
2013-01-18 18:06:00,30.6,19.8,30.21,SW,217,11.0,21.0,64,0.00,,,0.00,meteohub,2013-01-18 23:06:00,
2013-01-18 18:12:00,30.6,19.8,30.20,SW,217,18.0,21.0,64,0.00,,,0.00,meteohub,2013-01-18 23:12:00,
2013-01-18 18:17:00,30.6,20.1,30.20,SSW,209,13.0,24.0,65,0.00,,,0.00,meteohub,2013-01-18 23:17:00,
2013-01-18 18:22:00,30.6,20.1,30.20,SSW,210,13.0,24.0,65,0.00,,,0.00,meteohub,2013-01-18 23:22:00,
2013-01-18 18:27:00,30.6,20.1,30.19,South,184,18.0,24.0,65,0.00,,,0.00,meteohub,2013-01-18 23:27:00,
2013-01-18 18:32:00,30.6,19.8,30.19,SSW,210,9.0,21.0,64,0.00,,,0.00,meteohub,2013-01-18 23:32:00,
2013-01-18 18:37:00,30.6,20.1,30.18,SSW,192,16.0,22.0,65,0.00,,,0.00,meteohub,2013-01-18 23:37:00,
2013-01-18 18:42:00,30.6,19.8,30.18,SW,219,11.0,27.0,64,0.00,,,0.00,meteohub,2013-01-18 23:42:00,
2013-01-18 18:47:00,30.7,20.3,30.17,SSW,196,20.0,27.0,65,0.00,,,0.00,meteohub,2013-01-18 23:47:00,
2013-01-18 18:52:00,30.7,19.9,30.17,SW,223,20.0,27.0,64,0.00,,,0.00,meteohub,2013-01-18 23:52:00,
2013-01-18 18:57:00,30.7,20.3,30.17,South,185,15.0,26.0,65,0.00,,,0.00,meteohub,2013-01-18 23:57:00,
2013-01-18 19:02:00,30.7,20.3,30.17,South,180,20.0,27.0,65,0.00,,,0.00,meteohub,2013-01-19 00:02:00,
2013-01-18 19:07:00,30.9,20.1,30.17,WSW,240,14.0,27.0,64,0.00,,,0.00,meteohub,2013-01-19 00:07:00,
2013-01-18 19:13:00,31.1,20.3,30.17,SW,229,14.0,27.0,64,0.00,,,0.00,meteohub,2013-01-19 00:13:00,
2013-01-18 19:18:00,31.3,20.5,30.17,SSW,204,14.0,27.0,64,0.00,,,0.00,meteohub,2013-01-19 00:18:00,
2013-01-18 19:23:00,31.3,20.5,30.16,SSW,205,20.0,25.0,64,0.00,,,0.00,meteohub,2013-01-19 00:23:00,
2013-01-18 19:28:00,31.5,20.7,30.16,SW,216,20.0,30.0,64,0.00,,,0.00,meteohub,2013-01-19 00:28:00,
2013-01-18 19:33:00,31.5,20.3,30.16,SSW,207,23.0,32.0,63,0.00,,,0.00,meteohub,2013-01-19 00:33:00,
2013-01-18 19:38:00,31.8,20.7,30.15,SW,219,20.0,33.0,63,0.00,,,0.00,meteohub,2013-01-19 00:38:00,
2013-01-18 19:43:00,31.6,20.8,30.14,SSW,209,21.0,35.0,64,0.00,,,0.00,meteohub,2013-01-19 00:43:00,
2013-01-18 19:48:00,31.5,21.0,30.15,SW,217,21.0,35.0,65,0.00,,,0.00,meteohub,2013-01-19 00:48:00,
2013-01-18 19:53:00,31.5,20.7,30.14,SSW,211,23.0,33.0,64,0.00,,,0.00,meteohub,2013-01-19 00:53:00,
2013-01-18 19:58:00,31.5,21.0,30.14,SW,222,16.0,33.0,65,0.00,,,0.00,meteohub,2013-01-19 00:58:00,
2013-01-18 20:03:00,31.5,21.0,30.14,SW,219,22.0,33.0,65,0.00,,,0.00,meteohub,2013-01-19 01:03:00,
2013-01-18 20:08:00,31.5,21.0,30.13,SSW,203,17.0,37.0,65,0.00,,,0.00,meteohub,2013-01-19 01:08:00,
2013-01-18 20:14:00,31.6,21.6,30.13,SSE,155,23.0,37.0,66,0.00,,,0.00,meteohub,2013-01-19 01:14:00,
2013-01-18 20:19:00,31.6,21.6,30.12,SSE,157,21.0,37.0,66,0.00,,,0.00,meteohub,2013-01-19 01:19:00,
2013-01-18 20:24:00,31.6,21.6,30.12,SW,234,19.0,33.0,66,0.00,,,0.00,meteohub,2013-01-19 01:24:00,
2013-01-18 20:29:00,31.6,21.9,30.12,SSW,198,28.0,39.0,67,0.00,,,0.00,meteohub,2013-01-19 01:29:00,
2013-01-18 20:34:00,31.6,21.9,30.12,SSW,207,19.0,39.0,67,0.00,,,0.00,meteohub,2013-01-19 01:34:00,
2013-01-18 20:39:00,31.6,21.6,30.12,SSW,194,24.0,38.0,66,0.00,,,0.00,meteohub,2013-01-19 01:39:00,
2013-01-18 20:44:00,31.8,21.7,30.11,SSW,196,17.0,36.0,66,0.00,,,0.00,meteohub,2013-01-19 01:44:00,
2013-01-18 20:49:00,32.0,21.9,30.10,SSW,200,20.0,36.0,66,0.00,,,0.00,meteohub,2013-01-19 01:49:00,
2013-01-18 20:54:00,31.8,21.7,30.09,SSW,200,30.0,38.0,66,0.00,,,0.00,meteohub,2013-01-19 01:54:00,
2013-01-18 20:59:00,32.2,21.7,30.10,South,182,23.0,38.0,65,0.00,,,0.00,meteohub,2013-01-19 01:59:00,
2013-01-18 21:04:00,32.4,21.9,30.09,SW,215,32.0,38.0,65,0.00,,,0.00,meteohub,2013-01-19 02:04:00,
2013-01-18 21:09:00,32.5,21.7,30.08,SSW,204,19.0,37.0,64,0.00,,,0.00,meteohub,2013-01-19 02:09:00,
2013-01-18 21:14:00,32.7,21.9,30.07,South,189,22.0,38.0,64,0.00,,,0.00,meteohub,2013-01-19 02:14:00,
2013-01-18 21:19:00,32.5,21.7,30.08,SSW,203,29.0,39.0,64,0.00,,,0.00,meteohub,2013-01-19 02:19:00,
2013-01-18 21:25:00,32.5,21.7,30.06,SSE,161,37.0,40.0,64,0.00,,,0.00,meteohub,2013-01-19 02:25:00,
2013-01-18 21:30:00,33.1,21.9,30.07,SSW,213,23.0,41.0,63,0.00,,,0.00,meteohub,2013-01-19 02:30:00,
2013-01-18 21:35:00,32.9,21.7,30.07,SSW,209,28.0,51.0,63,0.00,,,0.00,meteohub,2013-01-19 02:35:00,
2013-01-18 21:40:00,32.9,22.1,30.06,SSW,213,24.0,51.0,64,0.00,,,0.00,meteohub,2013-01-19 02:40:00,
2013-01-18 21:45:00,33.3,22.1,30.06,SW,229,17.0,43.0,63,0.00,,,0.00,meteohub,2013-01-19 02:45:00,
2013-01-18 21:50:00,32.7,21.9,30.07,SSW,192,17.0,43.0,64,0.00,,,0.00,meteohub,2013-01-19 02:50:00,
2013-01-18 21:55:00,32.7,21.6,30.06,SW,215,19.0,36.0,63,0.00,,,0.00,meteohub,2013-01-19 02:55:00,
2013-01-18 22:00:00,33.1,21.9,30.06,SSW,195,26.0,40.0,63,0.00,,,0.00,meteohub,2013-01-19 03:00:00,
2013-01-18 22:05:00,33.6,21.9,30.06,SSW,213,26.0,40.0,62,0.00,,,0.00,meteohub,2013-01-19 03:05:00,
2013-01-18 22:10:00,34.0,22.3,30.06,SSW,198,29.0,45.0,62,0.00,,,0.00,meteohub,2013-01-19 03:10:00,
2013-01-18 22:15:00,33.6,21.9,30.06,South,182,23.0,45.0,62,0.00,,,0.00,meteohub,2013-01-19 03:15:00,
2013-01-18 22:20:00,34.0,21.9,30.06,SSW,196,31.0,39.0,61,0.00,,,0.00,meteohub,2013-01-19 03:20:00,
2013-01-18 22:25:00,33.6,21.6,30.05,SW,220,21.0,38.0,61,0.00,,,0.00,meteohub,2013-01-19 03:25:00,
2013-01-18 22:30:00,34.0,21.9,30.05,South,184,25.0,38.0,61,0.00,,,0.00,meteohub,2013-01-19 03:30:00,
2013-01-18 22:35:00,34.2,22.1,30.06,SSW,213,20.0,38.0,61,0.00,,,0.00,meteohub,2013-01-19 03:35:00,
2013-01-18 22:40:00,34.3,21.9,30.06,SW,229,15.0,38.0,60,0.00,,,0.00,meteohub,2013-01-19 03:40:00,
2013-01-18 22:45:00,34.3,21.9,30.05,SSW,198,25.0,37.0,60,0.00,,,0.00,meteohub,2013-01-19 03:45:00,
2013-01-18 22:50:00,34.2,22.1,30.04,SSW,206,34.0,37.0,61,0.00,,,0.00,meteohub,2013-01-19 03:50:00,
2013-01-18 22:55:00,34.3,21.6,30.05,SW,231,16.0,37.0,59,0.00,,,0.00,meteohub,2013-01-19 03:55:00,
2013-01-18 23:00:00,34.7,21.9,30.05,SW,229,28.0,36.0,59,0.00,,,0.00,meteohub,2013-01-19 04:00:00,
2013-01-18 23:05:00,34.9,21.9,30.04,SW,220,21.0,36.0,59,0.00,,,0.00,meteohub,2013-01-19 04:05:00,
2013-01-18 23:11:00,34.9,21.9,30.04,SSW,208,24.0,36.0,59,0.00,,,0.00,meteohub,2013-01-19 04:11:00,
2013-01-18 23:16:00,34.7,21.9,30.04,SSW,206,34.0,34.0,59,0.00,,,0.00,meteohub,2013-01-19 04:16:00,
2013-01-18 23:21:00,35.2,21.9,30.03,South,182,30.0,38.0,58,0.00,,,0.00,meteohub,2013-01-19 04:21:00,
2013-01-18 23:26:00,35.2,21.9,30.03,SSW,209,25.0,40.0,58,0.00,,,0.00,meteohub,2013-01-19 04:26:00,
2013-01-18 23:31:00,35.2,22.3,30.03,SSW,203,14.0,40.0,59,0.00,,,0.00,meteohub,2013-01-19 04:31:00,
2013-01-18 23:36:00,35.2,21.9,30.03,SW,216,16.0,40.0,58,0.00,,,0.00,meteohub,2013-01-19 04:36:00,
2013-01-18 23:41:00,35.4,22.1,30.03,SSW,213,28.0,34.0,58,0.00,,,0.00,meteohub,2013-01-19 04:41:00,
2013-01-18 23:46:00,35.4,22.1,30.03,SSW,210,25.0,34.0,58,0.00,,,0.00,meteohub,2013-01-19 04:46:00,
2013-01-18 23:51:00,35.6,22.3,30.02,SSW,209,17.0,34.0,58,0.00,,,0.00,meteohub,2013-01-19 04:51:00,
2013-01-18 23:56:00,35.8,22.5,30.02,SSW,202,18.0,34.0,58,0.00,,,0.00,meteohub,2013-01-19 04:56:00,